Terminal Aerodrome Forecast
Issued by NWS Indianapolis, IN

Home | Current Version | Previous Version | Text Only | Print | Product List | Glossary On
Versions: 1 2 3 4 5 6 7 8 9 10 11 12 13 14 15 16 17 18 19 20 21 22 23 24 25
000
FTUS43 KIND 182000 AAA
TAFIND
TAF AMD
KIND 182026Z 1820/1924 08007KT P6SM SCT040
     FM190100 07006KT P6SM SKC
     FM191500 11009KT P6SM FEW250=

USA.gov is the U.S. government's official web portal to all federal, state and local government web resources and services.